Ridgeville, SC

12:43 PM EDT on September 27, 2016 (GMT -0400)
Summerville

Weather History for KDYB - December, 2013

Change the Weather History Date:

Saturday, December 21, 2013

  Actual Average (KCHS) Record (KCHS)
Temperature  
Mean Temperature 63 °F 50 °F  
Max Temperature 78 °F 60 °F 80 °F (2013)
Min Temperature 48 °F 39 °F 15 °F (1981)
Degree Days  
Heating Degree Days 2 16  
Month to date heating degree days 283  
Since 1 July heating degree days 575  
Cooling Degree Days 0 0  
Month to date cooling degree days 0  
Year to date cooling degree days 2297  
Growing Degree Days 13 (Base 50)    
Moisture  
Dew Point 59 °F    
Average Humidity 89    
Maximum Humidity 100    
Minimum Humidity 61    
Precipitation  
Precipitation 0.00 in 0.10 in 2.09 in (1947)
Month to date precipitation 2.03  
Year to date precipitation 49.95  
Sea Level Pressure  
Sea Level Pressure 30.14 in    
Wind  
Wind Speed 2 mph (SSE)    
Max Wind Speed 13 mph    
Max Gust Speed 22 mph    
Visibility 10 miles    
Events      
T = Trace of Precipitation, MM = Missing Value Source: NWS Daily Summary

Daily Weather History Graph

Daily Weather History Graph

Search for Another Location

Airport or City:

Trip Planner

Search our weather history database for the weather conditions in past years. The results will help you decide how hot, cold, wet, or windy it might be!

Date:

Astronomy

Dec. 21, 2013 Rise Set
Actual Time 7:20 AM EST 5:18 PM EST
Civil Twilight 6:52 AM EST 5:45 PM EST
Nautical Twilight 6:21 AM EST 6:16 PM EST
Astronomical Twilight 5:51 AM EST 6:47 PM EST
Moon 9:21 PM EST (12/21) 9:56 AM EST (12/21)
Length of Visible Light 10h 52m
Length of Day
9h 58m
Waning Gibbous, 84% of the Moon is Illuminated
Dec 21
Waning Gibbous
Dec 25
Last Quarter
Jan 1
New
Jan 7
First Quarter
Jan 15
Full

Hourly Weather History & Observations

Time (EST) Temp. Dew Point Humidity Pressure Visibility Wind Dir Wind Speed Gust Speed Precip Events Conditions
12:15 AM 51.8 °F 51.8 °F 100% 30.18 in 10.0 mi Calm Calm - N/A   Scattered Clouds
12:35 AM 50.0 °F 50.0 °F 100% 30.17 in 10.0 mi Calm Calm - N/A   Scattered Clouds
12:55 AM 50.0 °F 50.0 °F 100% 30.17 in 10.0 mi Calm Calm - N/A   Clear
1:15 AM 50.0 °F 50.0 °F 100% 30.16 in 10.0 mi Calm Calm - N/A   Clear
1:35 AM 50.0 °F 50.0 °F 100% 30.16 in 10.0 mi Calm Calm - N/A   Clear
1:55 AM 50.0 °F 50.0 °F 100% 30.16 in 10.0 mi Calm Calm - N/A   Clear
2:15 AM 50.0 °F 50.0 °F 100% 30.16 in 10.0 mi Calm Calm - N/A   Clear
2:35 AM 50.0 °F 50.0 °F 100% 30.16 in 10.0 mi Calm Calm - N/A   Clear
2:55 AM 50.0 °F 50.0 °F 100% 30.16 in 10.0 mi Calm Calm - N/A   Clear
3:15 AM 50.0 °F 50.0 °F 100% 30.16 in 10.0 mi Calm Calm - N/A   Clear
3:35 AM 48.2 °F 48.2 °F 100% 30.16 in 10.0 mi Calm Calm - N/A   Clear
3:55 AM 48.2 °F 48.2 °F 100% 30.15 in 10.0 mi Calm Calm - N/A   Clear
4:15 AM 48.2 °F 48.2 °F 100% 30.15 in 10.0 mi Calm Calm - N/A   Clear
4:35 AM 48.2 °F 48.2 °F 100% 30.15 in 10.0 mi Calm Calm - N/A   Clear
4:55 AM 48.2 °F 48.2 °F 100% 30.15 in 10.0 mi Calm Calm - N/A   Clear
5:15 AM 48.2 °F 48.2 °F 100% 30.15 in 10.0 mi Calm Calm - N/A   Clear
5:35 AM 48.2 °F 48.2 °F 100% 30.15 in 10.0 mi Calm Calm - N/A   Clear
5:55 AM 48.2 °F 48.2 °F 100% 30.15 in 10.0 mi Calm Calm - N/A   Scattered Clouds
6:15 AM 48.2 °F 48.2 °F 100% 30.16 in 10.0 mi Calm Calm - N/A   Mostly Cloudy
6:35 AM 48.2 °F 48.2 °F 100% 30.16 in 10.0 mi Calm Calm - N/A   Mostly Cloudy
6:55 AM 48.2 °F 48.2 °F 100% 30.16 in 10.0 mi Calm Calm - N/A   Mostly Cloudy
7:15 AM 48.2 °F 48.2 °F 100% 30.16 in 7.0 mi Calm Calm - N/A   Mostly Cloudy
7:35 AM 48.2 °F 48.2 °F 100% 30.16 in 10.0 mi Calm Calm - N/A   Scattered Clouds
7:55 AM 48.2 °F 48.2 °F 100% 30.16 in 7.0 mi Calm Calm - N/A   Clear
8:15 AM 50.0 °F 50.0 °F 100% 30.17 in 5.0 mi Calm Calm - N/A   Clear
8:35 AM 51.8 °F 51.8 °F 100% 30.16 in 10.0 mi Calm Calm - N/A   Clear
8:55 AM 55.4 °F 55.4 °F 100% 30.16 in 10.0 mi Calm Calm - N/A   Clear
9:15 AM 60.8 °F 60.8 °F 100% 30.16 in 10.0 mi Calm Calm - N/A   Clear
9:35 AM 68.0 °F 62.6 °F 83% 30.17 in 10.0 mi Calm Calm - N/A   Clear
9:55 AM 69.8 °F 64.4 °F 83% 30.17 in 10.0 mi South 4.6 mph - N/A   Clear
10:15 AM 71.6 °F 64.4 °F 78% 30.16 in 10.0 mi South 6.9 mph - N/A   Clear
10:35 AM 73.4 °F 64.4 °F 73% 30.16 in 10.0 mi South 6.9 mph - N/A   Clear
10:55 AM 73.4 °F 64.4 °F 73% 30.15 in 10.0 mi South 9.2 mph - N/A   Clear
11:15 AM 77.0 °F 66.2 °F 69% 30.15 in 10.0 mi South 10.4 mph - N/A   Clear
11:35 AM 77.0 °F 66.2 °F 69% 30.15 in 10.0 mi South 9.2 mph 18.4 mph N/A   Scattered Clouds
11:55 AM 77.0 °F 66.2 °F 69% 30.14 in 10.0 mi South 6.9 mph 16.1 mph N/A   Scattered Clouds
12:15 PM 78.8 °F 66.2 °F 65% 30.13 in 10.0 mi South 9.2 mph 16.1 mph N/A   Scattered Clouds
12:35 PM 78.8 °F 66.2 °F 65% 30.12 in 10.0 mi South 10.4 mph - N/A   Mostly Cloudy
12:55 PM 78.8 °F 64.4 °F 61% 30.11 in 10.0 mi South 10.4 mph 21.9 mph N/A   Scattered Clouds
2:55 PM 77.0 °F 64.4 °F 65% 30.07 in 10.0 mi South 10.4 mph 18.4 mph N/A   Scattered Clouds
3:15 PM 77.0 °F 64.4 °F 65% 30.08 in 10.0 mi South 12.7 mph 17.3 mph N/A   Scattered Clouds
3:35 PM 77.0 °F 66.2 °F 69% 30.07 in 10.0 mi South 6.9 mph 17.3 mph N/A   Scattered Clouds
3:55 PM 77.0 °F 66.2 °F 69% 30.08 in 10.0 mi South 12.7 mph 18.4 mph N/A   Mostly Cloudy
4:15 PM 77.0 °F 68.0 °F 74% 30.08 in 10.0 mi South 9.2 mph 17.3 mph N/A   Mostly Cloudy
4:35 PM 75.2 °F 68.0 °F 78% 30.09 in 10.0 mi South 6.9 mph 17.3 mph N/A   Mostly Cloudy
4:55 PM 73.4 °F 68.0 °F 83% 30.09 in 10.0 mi SSE 6.9 mph - N/A   Mostly Cloudy
5:35 PM 73.4 °F 68.0 °F 83% 30.09 in 10.0 mi South 3.5 mph - N/A   Mostly Cloudy
5:55 PM 71.6 °F 68.0 °F 88% 30.10 in 10.0 mi SSE 5.8 mph - N/A   Scattered Clouds
6:15 PM 71.6 °F 68.0 °F 88% 30.10 in 10.0 mi SSE 3.5 mph - N/A   Scattered Clouds
6:35 PM 71.6 °F 68.0 °F 88% 30.11 in 10.0 mi SSE 3.5 mph - N/A   Scattered Clouds
6:55 PM 71.6 °F 68.0 °F 88% 30.11 in 10.0 mi SE 3.5 mph - N/A   Mostly Cloudy
7:15 PM 69.8 °F 68.0 °F 94% 30.11 in 10.0 mi SSE 3.5 mph - N/A   Scattered Clouds
9:35 PM 69.8 °F 68.0 °F 94% 30.10 in 10.0 mi SSE 4.6 mph - N/A   Clear
9:55 PM 69.8 °F 68.0 °F 94% 30.10 in 10.0 mi SSE 5.8 mph - N/A   Clear
10:15 PM 69.8 °F 68.0 °F 94% 30.10 in 10.0 mi SSE 5.8 mph - N/A   Clear
10:35 PM 69.8 °F 68.0 °F 94% 30.10 in 10.0 mi SSE 4.6 mph - N/A   Clear
11:15 PM 69.8 °F 69.8 °F 100% 30.10 in 10.0 mi SSE 3.5 mph - N/A   Clear
11:55 PM 69.8 °F 68.0 °F 94% 30.10 in 10.0 mi SSE 5.8 mph - N/A   Clear